Regional Weather Roundup
Issued by NWS

Home | Current Version | Previous Version | Graphics & Text | Print | Product List | Glossary On
Versions: 1 2 3 4 5 6 7 8 9 10 11 12 13 14 15 16 17 18 19 20 21 22 23 24 25 26 27 28 29 30 31 32 33 34 35 36 37 38 39 40 41 42 43 44 45 46 47 48 49 50
953
ASUS43 KDTX 100810
RWRMI
MICHIGAN HOURLY REGIONAL WEATHER ROUNDUP
NATIONAL WEATHER SERVICE DETROIT/PONTIAC MI
300 AM EST WED FEB 10 2016

NOTE: "FAIR" INDICATES FEW OR NO CLOUDS BELOW 12,000 FEET WITH NO
SIGNIFICANT WEATHER AND/OR OBSTRUCTION TO VISIBILITY.

MIZ047>049-052>055-059>063-066>070-074>076-081>083-100900-
SOUTHEAST LOWER MICHIGAN

CITY           SKY/WX    TMP DP  RH WIND       PRES   REMARKS
ADRIAN         CLOUDY    22  16  78 W10       29.75S WCI  11
ALMA           FLURRIES  22  17  83 W10G20    29.74R WCI  11
ANN ARBOR      CLOUDY    22  16  78 NW13G22   29.72S WCI  10
BAD AXE        LGT SNOW  20  17  89 W9        29.67R WCI   9
CARO           CLOUDY    19  18  93 W9        29.68S WCI   9
DETROIT CITY   LGT SNOW  23  18  81 W9        29.71R WCI  13
DETROIT        FLURRIES  24  17  74 W15       29.73R WCI  11
FLINT          FLURRIES  23  15  71 W13       29.70S WCI  11
GROSSE ILE     FLURRIES  25  19  80 W9        29.71S WCI  15
HILLSDALE      CLOUDY    21  16  81 W9        29.73S WCI  10
HOWELL         CLOUDY    22  16  78 W13       29.71R WCI  10

CITY           SKY/WX    TMP DP  RH WIND       PRES   REMARKS
JACKSON        CLOUDY    20  12  71 NW14      29.74R WCI   7
LAMBERTVILLE   CLOUDY    23  20  87 W8        29.75S WCI  14
LANSING        CLOUDY    20  13  74 NW16      29.75R WCI   6
LAPEER         FLURRIES  20  17  89 NW7       29.68S WCI  11
MASON          FLURRIES  21  15  79 W14G20    29.73S WCI   8
MONROE         CLOUDY    24  17  74 W13       29.73S WCI  13
MT. CLEMENS    CLOUDY    22  16  78 W13       29.68R WCI  10
PONTIAC        CLOUDY    21  16  81 W13       29.67S WCI   9
PORT HOPE        N/A     22  19  89 NW21G28   29.63S WCI   6
PORT HURON     CLOUDY    21  18  86 W7        29.67S WCI  13
TRI CITIES     FLURRIES  22  14  71 NW15      29.72R WCI   9
MIDLAND        FLURRIES  21  15  79 NW12      29.72R WCI   9
TROY           LGT SNOW  24  20  87 W7        29.71S WCI  16
SAGINAW HB     FLURRIES  21  18  86 W10       29.71R WCI  10
$$
MIZ043>046-050>051-056>058-064>065-071>073-077>080-100900-
SOUTHWEST LOWER MICHIGAN

CITY           SKY/WX    TMP DP  RH WIND       PRES   REMARKS
BATTLE CREEK   LGT SNOW  19  14  81 NW7       29.78R WCI  10
BENTON HARBOR  CLOUDY    22  11  62 NW9G18    29.85R WCI  12
BIG RAPIDS     LGT SNOW  19  14  82 NW8       29.74R WCI   8
COLDWATER      CLOUDY    20  15  79 W7        29.77S WCI  11
FREMONT        CLOUDY    18  13  79 NW12      29.79S WCI   6
HOLLAND        SNOW      19  15  84 N8        29.83S VSB 1/2 WCI   9
GRAND RAPIDS   FLURRIES  19  14  81 NW12      29.79R WCI   7
IONIA          LGT SNOW  19  14  80 W13       29.75S WCI   6
KALAMAZOO      LGT SNOW  20  14  77 NW8       29.79R WCI  10
LUDINGTON      LGT SNOW  18  15  88 NW12G20   29.83R WCI   5
MARSHALL       CLOUDY    21  13  71 NW10      29.76R WCI  10
MOUNT PLEASANT FLURRIES  21  12  66 NW10G20   29.72S WCI  10
MUSKEGON       FLURRIES  20  12  71 NW14      29.83R WCI   7
SOUTH HAVEN    CLOUDY    22  15  74 N10G21    29.83R WCI  11
$$
MIZ016>042-100900-
NORTHERN LOWER MICHIGAN

CITY           SKY/WX    TMP DP  RH WIND       PRES   REMARKS
ALPENA         LGT SNOW  15  10  80 N13       29.69R WCI   1
BEAVER ISLAND  LGT SNOW  13   8  79 N9G20     29.79S WCI   1
BELLAIRE       LGT SNOW  15  10  82 N6        29.78R WCI   6
CADILLAC       LGT SNOW  16  10  78 NW13      29.70R WCI   2
CHARLEVOIX     LGT SNOW  15   9  76 N17G28    29.80R WCI  -1
FRANKFORT      LGT SNOW  19  13  79 N10G20    29.81R WCI   7
GAYLORD        LGT SNOW  10   4  76 NW8G18    29.68S WCI  -2
GRAYLING       LGT SNOW  15   9  79 NW7       29.70R WCI   5
HARBOR SPRINGS FLURRIES  11   4  74 NW6       29.76R WCI   1
HOUGHTON LAKE  CLOUDY    14   7  73 N8G20     29.70R WCI   3
MANISTEE       CLOUDY    18  12  79 N14G24    29.81R VSB 3/4 WCI   4
OSCODA         LGT SNOW  17  13  82 NW12      29.68R WCI   4
PELLSTON       LGT SNOW  10   5  80 N10       29.76S WCI  -4
ROGERS CITY    LGT SNOW  14   9  81 NW13      29.72R WCI   0
TRAVERSE CITY  LGT SNOW  18  10  71 NW13G33   29.77R WCI   5
$$
MIZ007>008-015-100900-
EASTERN UPPER MICHIGAN

CITY           SKY/WX    TMP DP  RH WIND       PRES   REMARKS
KINROSS        CLOUDY     3   0  85 N15G21    29.76R WCI -15
MACKINAC ISLAN LGT SNOW   8   3  82 N17G24    29.75R WCI -11
NEWBERRY       LGT SNOW   8   5  86 N9        29.78R WCI  -5
S. S. MARIE    FLURRIES   4  -5  66 N13       29.77R WCI -13
MUNISING         N/A     13   9  84 N21       29.85R WCI  -5
$$
MIZ004>006-011>014-085-100900-
CENTRAL UPPER MICHIGAN

CITY           SKY/WX    TMP DP  RH WIND       PRES   REMARKS
MANISTIQUE     CLOUDY    12   6  76 N15G22    29.81S WCI  -4
ESCANABA       CLOUDY    10   0  61 NW16G23   29.87S WCI  -7
MENOMINEE      CLEAR      9   0  66 NW8G16    29.92R WCI  -4
SAWYER-GWINN   LGT SNOW   6   1  80 NW18G26   29.83S WCI -14
$$
MIZ001>003-009>011-084-100900-
WESTERN UPPER MICHIGAN

CITY           SKY/WX    TMP DP  RH WIND       PRES   REMARKS
IRON MOUNTAIN  CLOUDY     7  -6  55 NW14G24   29.89S WCI -10
HOUGHTON       HAZE       5  -1  76 N12       29.94S VSB 1   WCI -11
COPPER HARBOR    N/A     11   7  84 NE30G37   29.95S WCI -11
IRONWOOD       CLOUDY     7   3  85 N7        29.95S WCI  -5
$$

ABBREVIATIONS USED IN REMARKS
   TC - TEMPERATURE IN CELSIUS
  WCI - WIND CHILL INDEX
   HX - HEAT INDEX
  VSB - VISIBILITY





USA.gov is the U.S. government's official web portal to all federal, state and local government web resources and services.